Caldwell, NJ

10:37 PM EDT on April 30, 2017 (GMT -0400)
Essex County

Weather History for KCDW - June, 2014

Change the Weather History Date:

Wednesday, June 4, 2014

  Actual Average Record
Temperature  
Mean Temperature 72 °F -  
Max Temperature 82 °F 76 °F 88 °F (1989)
Min Temperature 62 °F 52 °F 41 °F (1965)
Cooling Degree Days 6    
Growing Degree Days 22 (Base 50)    
Moisture  
Dew Point 61 °F    
Average Humidity 77    
Maximum Humidity 100    
Minimum Humidity 38    
Precipitation  
Precipitation 0.00 in - - ()
Sea Level Pressure  
Sea Level Pressure 29.82 in    
Wind  
Wind Speed 2 mph (ENE)    
Max Wind Speed 6 mph    
Max Gust Speed -    
Visibility 6 miles    
Events      
Averages and records for this station are not official NWS values.
T = Trace of Precipitation, MM = Missing Value Source: NWS Daily Summary

Daily Weather History Graph

Daily Weather History Graph

Search for Another Location

Airport or City:

Trip Planner

Search our weather history database for the weather conditions in past years. The results will help you decide how hot, cold, wet, or windy it might be!

Date:

Astronomy

Jun. 04, 2014 Rise Set
Actual Time 5:26 AM EDT 8:24 PM EDT
Civil Twilight 4:53 AM EDT 8:57 PM EDT
Nautical Twilight 4:11 AM EDT 9:39 PM EDT
Astronomical Twilight 3:23 AM EDT 10:28 PM EDT
Moon 11:45 AM EDT (6/4) 12:20 AM EDT (6/4)
Length of Visible Light 16h 04m
Length of Day
14h 58m
Waxing Crescent, 39% of the Moon is Illuminated
Jun 4
Waxing Crescent
Jun 5
First Quarter
Jun 13
Full
Jun 19
Last Quarter
Jun 27
New

Hourly Weather History & Observations

Time (EDT) Temp. Heat Index Dew Point Humidity Pressure Visibility Wind Dir Wind Speed Gust Speed Precip Events Conditions
12:53 AM 68.0 °F - 66.9 °F 96% 29.84 in 4.0 mi East 5.8 mph - N/A   Overcast
2:01 AM 66.2 °F - 64.4 °F 94% 29.81 in 5.0 mi South 3.5 mph - N/A   Overcast
2:22 AM 66.2 °F - 64.4 °F 94% 29.82 in 4.0 mi Calm Calm - N/A   Scattered Clouds
2:32 AM 66.2 °F - 64.4 °F 94% 29.82 in 4.0 mi NNE 3.5 mph - N/A   Mostly Cloudy
2:50 AM 64.4 °F - 64.4 °F 100% 29.80 in 3.0 mi Calm Calm - N/A   Scattered Clouds
3:34 AM 64.4 °F - 62.6 °F 94% 29.80 in 1.8 mi Calm Calm - N/A   Clear
3:45 AM 64.4 °F - 64.4 °F 100% 29.81 in 2.5 mi Calm Calm - N/A   Clear
3:53 AM 64.0 °F - 63.0 °F 96% 29.83 in 2.5 mi Calm Calm - N/A   Partly Cloudy
4:09 AM 64.4 °F - 62.6 °F 94% 29.82 in 2.5 mi Calm Calm - N/A   Mostly Cloudy
4:21 AM 64.4 °F - 64.4 °F 100% 29.82 in 3.0 mi Calm Calm - N/A   Overcast
4:39 AM 64.4 °F - 62.6 °F 94% 29.82 in 3.0 mi Calm Calm - N/A   Scattered Clouds
4:53 AM 64.0 °F - 63.0 °F 96% 29.84 in 2.0 mi Calm Calm - N/A   Clear
5:27 AM 62.6 °F - 62.6 °F 100% 29.83 in 1.8 mi Calm Calm - N/A   Partly Cloudy
5:39 AM 62.6 °F - 62.6 °F 100% 29.83 in 1.0 mi Calm Calm - N/A   Mostly Cloudy
5:53 AM 63.0 °F - 63.0 °F 100% 29.84 in 1.2 mi Calm Calm - N/A   Mostly Cloudy
6:35 AM 64.4 °F - 64.4 °F 100% 29.84 in 2.0 mi Calm Calm - N/A   Overcast
6:53 AM 64.9 °F - 64.0 °F 97% 29.86 in 2.5 mi Calm Calm - N/A   Overcast
7:08 AM 64.4 °F - 64.4 °F 100% 29.84 in 2.5 mi ENE 4.6 mph - N/A   Overcast
7:30 AM 66.2 °F - 64.4 °F 94% 29.84 in 3.0 mi East 3.5 mph - N/A   Mostly Cloudy
7:37 AM 66.2 °F - 64.4 °F 94% 29.85 in 3.0 mi Calm Calm - N/A   Scattered Clouds
7:53 AM 69.1 °F - 64.9 °F 87% 29.86 in 6.0 mi East 3.5 mph - N/A   Partly Cloudy
8:50 AM 69.8 °F - 62.6 °F 78% 29.86 in 10.0 mi NE 5.8 mph - N/A   Mostly Cloudy
8:53 AM 70.0 °F - 63.0 °F 78% 29.88 in 10.0 mi Variable 3.5 mph - N/A   Mostly Cloudy
9:50 AM 71.6 °F - 62.6 °F 73% 29.86 in 10.0 mi Variable 5.8 mph - N/A   Scattered Clouds
9:53 AM 71.1 °F - 63.0 °F 75% 29.87 in 10.0 mi Variable 3.5 mph - N/A   Scattered Clouds
10:36 AM 75.2 °F - 64.4 °F 69% 29.85 in 10.0 mi Calm Calm - N/A   Mostly Cloudy
10:53 AM 75.0 °F - 63.0 °F 66% 29.86 in 10.0 mi Variable 3.5 mph - N/A   Mostly Cloudy
11:20 AM 75.2 °F - 62.6 °F 65% 29.84 in 10.0 mi East 3.5 mph - N/A   Scattered Clouds
11:53 AM 77.0 °F - 62.1 °F 60% 29.84 in 10.0 mi Variable 4.6 mph - N/A   Clear
12:53 PM 78.1 °F - 61.0 °F 56% 29.83 in 10.0 mi Calm Calm - N/A   Scattered Clouds
1:53 PM 81.0 °F 81.6 °F 60.1 °F 49% 29.81 in 10.0 mi ENE 3.5 mph - N/A   Clear
2:53 PM 81.0 °F 80.7 °F 55.0 °F 41% 29.78 in 10.0 mi West 4.6 mph - N/A   Scattered Clouds
3:53 PM 81.0 °F 81.0 °F 57.0 °F 44% 29.77 in 10.0 mi SW 3.5 mph - N/A   Mostly Cloudy
4:53 PM 81.0 °F 80.4 °F 53.1 °F 38% 29.76 in 10.0 mi NW 5.8 mph - N/A   Mostly Cloudy
5:53 PM 79.0 °F - 53.1 °F 40% 29.76 in 10.0 mi Variable 3.5 mph - N/A   Scattered Clouds
6:53 PM 77.0 °F - 53.1 °F 43% 29.76 in 10.0 mi Calm Calm - N/A   Mostly Cloudy
7:53 PM 75.0 °F - 51.1 °F 43% 29.77 in 10.0 mi Variable 4.6 mph - N/A   Partly Cloudy
8:53 PM 73.9 °F - 51.1 °F 45% 29.78 in 10.0 mi NE 3.5 mph - N/A   Clear
9:53 PM 73.0 °F - 52.0 °F 48% 29.80 in 10.0 mi Calm Calm - N/A   Overcast
11:53 PM 69.1 °F - 55.0 °F 61% 29.78 in 10.0 mi East 3.5 mph - N/A   Overcast